Starlink 3298

operational
NORAD ID: 50165 Int'l Des: 2021-125 Owner: SPXS Country: US Constellation: starlink
LEOCIRCULAR

Starlink 3298について

説明を読み込み中...

リアルタイム位置

3D地球を読み込み中...

次回通過

高度履歴

Altitude vs Time

uPlot chart will show altitude changes over time

軌道要素

1 50165U 21125K 25258.88321422 .00001315 00000-0 10065-3 0 9995
2 50165 53.2190 323.8576 0001315 90.6800 269.4343 15.08846262210114
Epoch: Sep 15, 2025 • Age: 18 hours

現在のステータス

高度 540.6 km
速度 7.60 km/s
衛星直下点 28.73°N, 109.16°W
打ち上げ日 Dec 18, 2021
運用期間 3.7 years
タイプ internet

技術仕様

分類 Payload
質量 290.00 kg
乾燥質量 270.00 kg
総質量 290.00 kg
長さ 0.20 m
直径 2.80 m
スパン 9.00 m
形状 Box + pan
製造者 SPXS
バスタイプ Starlink
フェーズステータス In Orbit
所有者/国 SPXS/US

大規模コンステレーション

Loading constellations...